Regional Weather Roundup
Issued by NWS

Current Version | Previous Version | Text Only | Print | Product List | Glossary On
Versions: 1 2 3 4 5 6 7 8 9 10 11 12 13 14 15 16 17 18 19 20 21 22 23 24 25 26 27 28 29 30 31 32 33 34 35 36 37 38 39 40 41 42 43 44 45 46 47 48 49 50
000
ASUS44 KFWD 262301
RWRTX
NORTH TEXAS HOURLY WEATHER ROUNDUP
NATIONAL WEATHER SERVICE FORT WORTH TX
600 PM CDT WED JUL 26 2017

NOTE: "FAIR" INDICATES FEW OR NO CLOUDS BELOW 12,000 FEET WITH NO
SIGNIFICANT WEATHER AND/OR OBSTRUCTIONS TO VISIBILITY.

TXZ118-119-270000-
DALLAS/FORT WORTH METROPLEX

CITY           SKY/WX    TMP DP  RH WIND       PRES   REMARKS
DFW AIRPORT    MOSUNNY   97  69  40 S12       29.95F HX 103
DALLAS LOVE    MOSUNNY   98  65  33 SE14      29.96F HX 101
FTW MEACHAM    SUNNY     97  68  38 S12       29.96S HX 102
DAL-EXECUTIVE  SUNNY     96  68  39 S8        29.97F HX 101
FTW-ALLIANCE   PTSUNNY   94  68  42 S8        29.96F HX  98
FTW-NAS-JRB    PTSUNNY   98  65  33 S9        29.96F HX 101
FTW-SPINKS     MOSUNNY   99  64  32 SE14      29.99S HX 101
ARLINGTON      MOSUNNY   97  67  37 S12       29.97F HX 101
GRAND PRAIRIE  SUNNY     97  63  32 S9        29.98F HX  98
ADDISON        MOSUNNY   97  64  34 S12G20    29.98F HX  99
MESQUITE       MOSUNNY   97  66  36 SE9       29.98F HX 100
LANCASTER      SUNNY     97  66  35 SE15      29.98F HX 101
$$

TXZ091>094-102>105-117-120-121-131>134-270000-
NORTH CENTRAL TEXAS

CITY           SKY/WX    TMP DP  RH WIND       PRES   REMARKS
SHRMAN/DENISON CLOUDY    94  71  47 S12       29.99F HX 100
GAINESVILLE    SUNNY     94  72  49 SE9       29.99F HX 101
BOWIE          SUNNY     94  69  43 SE13      29.97F HX  99
BRIDGEPORT     SUNNY     96  65  35 S9        29.98S HX  98
DECATUR        SUNNY     94  67  40 SE14        N/A  HX  98
DENTON         MOSUNNY   95  71  45 S12       29.96F HX 102
MCKINNEY       MOSUNNY   94  72  48 SE12G21   29.98F HX 102
BONHAM         CLOUDY    91  72  52 S12       29.99F HX  98
ROCKWALL       SUNNY     95  70  44 S15       29.99F HX 101
TERRELL        SUNNY     95  70  44 S13G18    29.99F HX 101
WAXAHACHIE     SUNNY     97  66  35 S10       29.99F HX 100
CLEBURNE       SUNNY     97  64  34 S10G18    29.99F HX  99
GRANBURY       SUNNY    100  62  28 SE12G17   29.97F HX 101
$$

TXZ083>090-098>101-113>116-127>130-139>142-154-155-270000-
WESTERN NORTH TEXAS

CITY           SKY/WX    TMP DP  RH WIND       PRES   REMARKS
WICHITA FALLS  CLOUDY    99  63  30 SW10      29.91F HX 101
WF-KICKAPOO    SUNNY    101  63  29 S12G18    29.94F HX 102
VERNON         MOSUNNY  101  55  21 S12       29.91F HX  99
ABILENE        MOSUNNY   98  60  28 SW10      29.98F HX  98
ABILENE-DYESS  MOSUNNY   98  63  31 S9        29.96F HX  99
GRAHAM         MOSUNNY  100  63  29 SE8G18    29.93F HX 102
CISCO          SUNNY     99  63  30 S14G20    30.00F HX 100
EASTLAND       SUNNY     97  63  32 S8        29.98F HX  98
RANGER         SUNNY     96  63  34 SE10G16   29.99F HX  97
MINERAL WELLS  MOSUNNY   97  65  34 S12G20    29.95F HX  99
STEPHENVILLE   SUNNY     97  60  29 S9        30.02S HX  97
COMANCHE       PTSUNNY   99  64  32 SE8       29.99F HX 101
BROWNWOOD      RAIN      97  59  28 SE10G16   29.98F HX  96
COLEMAN        SUNNY     98  57  25 SE12G17   29.99F HX  97
$$

TXZ143>147-156>162-174-175-270000-
CENTRAL TEXAS

CITY           SKY/WX    TMP DP  RH WIND       PRES   REMARKS
WACO           SUNNY     99  65  32 S13       29.97F HX 102
WACO-MCGREGOR  SUNNY    100  65  31 S12       29.97F HX 103
HILLSBORO      SUNNY     99  65  33 SE7       29.98F HX 102
CORSICANA      SUNNY     97  70  41 S12G17    30.00F HX 103
MEXIA          MOSUNNY   94  70  45 SE9       29.99S HX 100
HEARNE         SUNNY     98  68  38 SE8       29.98F HX 103
CAMERON        SUNNY    100  64  31 S8        29.96F HX 102
TEMPLE         MOSUNNY   99  65  32 E12       29.98F HX 102
KILLEEN        MOSUNNY   99  61  28 S13G22    29.98F HX 100
KILLEEN-SKYLRK SUNNY     99  66  33 S13       29.98F HX 103
FORT HOOD      MOSUNNY   97  64  33 SE15      29.95F HX  99
HAMILTON       MOSUNNY   99  60  27 SW8G16    30.00F HX  99
LAMPASAS       MOSUNNY   98  64  33 S8        29.99F HX 100
$$

TXZ095>097-106>112-122>126-135>138-148>153-164>167-270000-
EAST TEXAS

CITY           SKY/WX    TMP DP  RH WIND       PRES   REMARKS
PARIS            N/A     94  74  52 S10       30.00F HX 104
SULPHUR SPRNGS SUNNY     95  69  42 S9        30.01F HX 100
MOUNT PLEASANT SUNNY     94  66  39 S3        30.01F HX  97
GILMER         SUNNY     94  71  46 S8        30.01S HX 100
MINEOLA        PTSUNNY   95  70  43 SW7       30.00F HX 101
TYLER          SUNNY     96  68  39 S12       30.01F HX 101
LONGVIEW       SUNNY     94  72  48 S12       30.00F HX 102
MARSHALL         N/A     92  70  47 S6        30.03S HX  98
ATHENS         MOSUNNY   95  66  38 S6        29.99S HX  98
PALESTINE      PTSUNNY   95  72  46 SE9       30.01F HX 103
JACKSONVILLE   SUNNY     92  71  49 S6        30.05F HX  99
HENDERSON      SUNNY     94  70  45 S6        30.03F HX 100
CENTER         HAZE      95  75  52 S5        30.03F VSB 3/4 HX 107
NACOGDOCHES    MOSUNNY   91  73  55 S9        30.00F HX 100
LUFKIN         SUNNY     93  71  48 S6        30.02F HX 100
$$

SUPPLEMENTAL OBSERVATIONS (NWS FORT WORTH AREA)

CITY           SKY/WX    TMP DP  RH WIND       PRES   REMARKS
$$

SUPPLEMENTAL OBSERVATIONS (NWS NORMAN AREA)

CITY           SKY/WX    TMP DP  RH WIND       PRES   REMARKS
GOODLETT         N/A    103  56  20 S14G23    29.91F HX 101
ODELL            N/A     98  65  33 SE15      29.93F HX 101
CROWELL          N/A    102  62  26 S14       29.93F HX 104
KNOX CITY        N/A    102  58  22 S13G18    29.94S HX 101
SEYMOUR          N/A    103  57  22 S14G20    29.93F HX 102
$$

SUPPLEMENTAL OBSERVATIONS (NWS SAN ANGELO AREA)

CITY           SKY/WX    TMP DP  RH WIND       PRES   REMARKS
WEINERT          N/A    100  64  30 S13       29.95F HX 102
THROCKMORTON     N/A    100  67  33 SE10      29.96F HX 105
STAMFORD         N/A    100  62  28 S15       29.96F HX 100
CLYDE            N/A     95  62  33 S9        30.01F HX  96
$$

SUPPLEMENTAL OBSERVATIONS (NWS SHREVEPORT AREA)

CITY           SKY/WX    TMP DP  RH WIND       PRES   REMARKS
$$

SUPPLEMENTAL OBSERVATIONS ARE A COLLECTION OF AUTOMATED INSTRUMENTS
THAT ARE MAINTAINED BY A VARIETY OF FEDERAL AND STATE AGENCIES.
CERTAIN ELEMENTS...SUCH AS HUMIDITY VALUES AND SUSTAINED WIND
SPEEDS...MAY BE APPROXIMATED.





USA.gov is the U.S. government's official web portal to all federal, state and local government web resources and services.